{"data":{"norad_id":63986,"intl_designator":"2025-100E","name":"SCS-01 E","alt_names":[],"object_type":"PAYLOAD","status":"ACTIVE","operator":null,"country":"PRC","launch_date":"2025-05-14","launch_site_code":"JSC","launch_vehicle":null,"mission":null,"orbit_class":"UNKNOWN","rcs_meters":null,"size_class":null,"mass_kg":null,"dimensions":null,"purposes":[],"wikipedia_slug":null,"has_3d_model":false,"image_url":null,"decayed_at":null,"tle_current":{"epoch":"2026-09-21T21:47:07.273248Z","epoch_age_seconds":78102,"freshness":"FRESH","line1":"1 63986U 25100E   26264.90772307  .00007537  00000+0  33872-3 0  9992","line2":"2 63986  97.3549 335.4209 0008932 352.9546   7.1563 15.21383661 45156","mean_motion":15.21383661,"eccentricity":0.0008932,"inclination_deg":97.3549,"raan_deg":335.4209,"arg_perigee_deg":352.9546,"mean_anomaly_deg":7.1563,"bstar":0.00033872,"rev_number":4515,"period_min":94.650681278744,"perigee_km":495.5210685224,"apogee_km":507.81114879571,"semimajor_km":6879.8031086591,"source":"CELESTRAK","updated_at":"2026-09-22T09:00:29.478460Z"}}}